Regional Weather Roundup
Issued by NWS

Home | Current Version | Previous Version | Text Only | Print | Product List | Glossary Off
Versions: 1 2 3 4 5 6 7 8 9 10 11 12 13 14 15 16 17 18 19 20 21 22 23 24 25 26 27 28 29 30 31 32 33 34 35 36 37 38 39 40 41 42 43 44 45 46 47 48 49 50

000
ASUS43 KIND 301259
RWRIN

WEATHER ROUNDUP FOR INDIANA
NATIONAL WEATHER SERVICE INDIANAPOLIS IN
900 AM EDT MON MAY 30 2016

NOTE: "FAIR" INDICATES FEW OR NO CLOUDS BELOW 12,000 FEET WITH NO
SIGNIFICANT WEATHER AND/OR OBSTRUCTIONS TO VISIBILITY.

* - STATION DOES NOT REPORT WEATHER SUCH AS PRECIPITATION OR FOG.

+ - STATION NOT QUALITY CONTROLLED BY THE NATIONAL WEATHER SERVICE.
    USE DATA WITH CAUTION...ESPECIALLY DEWPOINT AND RELATIVE
    HUMIDITY OBSERVATIONS.

INZ001>003-010>013-019-020-301400-
NORTHWEST INDIANA

CITY           SKY/WX    TMP DP  RH WIND       PRES   REMARKS
GARY /AIRPORT/ MOSUNNY   72  66  83 SW6       30.04S
RENSSELAER +   CLOUDY    70  61  73 S3        30.06S

$$

LMZ046-743>745-301400-
SOUTHERN LAKE MICHIGAN

STATION/POSITION TIME  TEMP    WIND        PRES    WAVE
                       AIR SEA DIR/SP/G            HT
                 (UTC) (F)     (DEG/KT/KT) (MB)    (FT)
BURNS HARBOR     1200   67     200/  4/  6 1017.3S
MICHIGAN CITY    1200   67     180/  5/  5   N/A
5NW MICH CITY    1200   62 58  210/  4/  6   N/A     0

$$

INZ004-005-014>016-021>024-301400-
NORTH CENTRAL INDIANA

CITY           SKY/WX    TMP DP  RH WIND       PRES   REMARKS
GOSHEN         SUNNY     70  58  65 W7        30.04S
SOUTH BEND     SUNNY     71  59  65 NW7       30.04S

$$

INZ006>009-017-018-025>027-301400-
NORTHEAST INDIANA

CITY           SKY/WX    TMP DP  RH WIND       PRES   REMARKS
ANGOLA *+        N/A     72  61  68 VRB3      30.04S
FORT WAYNE     CLOUDY    73  57  57 W7        30.05S

$$

INZ028-029-035-036-043>045-051>053-301400-
WEST CENTRAL INDIANA

CITY           SKY/WX    TMP DP  RH WIND       PRES   REMARKS
CRAWFORDSVL +  CLOUDY    69  60  73 CALM      30.08R
GREENCASTLE +  CLOUDY    68  64  88 CALM      30.08S
LAFAYETTE      CLOUDY    69  60  73 CALM      30.05S
TERRE HAUTE    SUNNY     69  60  73 CALM      30.07R

$$

INZ030>032-037>040-046>048-054>057-064-065-301400-
CENTRAL INDIANA

CITY           SKY/WX    TMP DP  RH WIND       PRES   REMARKS
COLUMBUS       SUNNY     68  64  88 CALM      30.07R
INDIANAPOLIS   CLOUDY    72  60  66 CALM      30.06R
-EAGLE CREEK   CLOUDY    73  58  59 CALM      30.06S
KOKOMO *+      CLOUDY    73  57  56 W5        30.06R
SHELBYVILLE    MOSUNNY   74  60  61 N3        30.06R

$$

INZ033-034-041-042-049-050-058-059-301400-
EAST CENTRAL INDIANA

CITY           SKY/WX    TMP DP  RH WIND       PRES   REMARKS
MUNCIE         CLOUDY    73  57  57 W3        30.07R

$$

INZ060-061-067>069-081>083-085>088-301400-
SOUTHWEST INDIANA

CITY           SKY/WX    TMP DP  RH WIND       PRES   REMARKS
EVANSVILLE     SUNNY     75  62  64 CALM      30.07S
HUNTINGBURG *+ SUNNY     72  64  78 CALM      30.07S

$$

INZ062-063-066-070>080-084-089>092-301400-
SOUTH CENTRAL AND SOUTHEAST INDIANA

CITY           SKY/WX    TMP DP  RH WIND       PRES   REMARKS
BLOOMINGTON    SUNNY     71  61  70 N3        30.07S
MADISON *+     MOSUNNY   72  63  73 CALM      30.08S
SEYMOUR +      CLOUDY    73  59  60 CALM      30.06S

$$





USA.gov is the U.S. government's official web portal to all federal, state and local government web resources and services.